Showing default

IRIDIUM 111, 41926

Orbit data source: Space-Track

IRIDIUM 111, 41926 is a payload satellite owned by Iridium (US) in LEO that was launched on Sat, 14 Jan 2017 UTC via an FALCON 9 launch vehicle from the Air Force Western Test Range (AFWTR). Payload-class satellites include a variety of spacecraft equipped with specific instruments for various scientific and technological missions. These include communications satellites like Starlink; space stations such as the ISS; scientific satellites like the Hubble; Earth observation satellites from companies like Planet Labs, Umbra, and HawkEye 360; GPS; miniature CubeSats for education and research; and military/defense satellites.

Loading next visibility...
Identifier
41926, 2017-003K
Orbit
LEO
Country
Flag of USUS
Related business
Manufacturer
OATK SSG Gilbert
Mission
Operational Commercial Communications
Bus & Motor
ELITEBUS, Unknown motor
Mass
860 kg wet, 700 kg dry
Launch date (UTC)
2017-01-14 (9 years ago)
Launch vehicle
FALCON 9
Launch site
Air Force Western Test Range (AFWTR)
Object type
Payload
Rocket body
Debris
Shape & HBR
Trap Box + 2 Pan, 4.8 m
Radar Cross Section
10.154 m², Large (>1 m²)

Expand to show TLE details & history
Last TLE update: 11 hours ago

TLE from 11 hours ago
0 IRIDIUM 111
1 41926U 17003K   25315.16400702  .00000036  00000-0  59242-5 0  9995
2 41926  86.4010 179.4608 0001971  83.9323 276.2097 14.34217229462004
Epoch: 2025-11-11T03:56Z
TLE epoch observation values (Epoch: 2025-11-11T03:56:10.206Z)
Latitude
-0.00006°
Longitude
69.86378°
Altitude
780.568 km
Speed
7.464 km/s
True Right ascension
11h 57m 50s
True Declination
0° 00' 00"
Sunlit
Object was in daylight at epoch
Visualization orbit readout
Latitude
Unknown
Longitude
Unknown
Altitude
Unknown
Speed
Unknown
Apparent Right ascension
Unknown
Apparent Declination
Unknown
Sunlit
N/A
Visualization observer readout
Local Sidereal Time
10:49:58
Azimuth
Unknown
Elevation
Unknown
Doppler factor
Unknown
Orbital elements
Apogee altitude
776.043 km
Perigee altitude
773.223 km
Semi-major axis
7,152.77 km
Eccentricity
0.0002
Inclination
86.401°
RAAN
179.4608°
Arg. of periapsis
83.9323°
True anomaly
276.18725°
Mean anomaly
276.2097°
Eccentric anomaly
276.19847°
Mean motion
3.58783 °/min
Orbital period
100.34 mins
BSTAR
0.0000059242
Loading maneuver chart data...
Computing Atmospheric mass density...
Loading historical data...
Loading historical data...
Loading historical data...
Loading historical data...
Loading historical data...
Loading historical data...
Loading historical data...

Documentation

Showing up to 5 results
|